Location: ??
(35.4032°N, 139.3073°E)
Time: 12:33:21
(UTC+00:00)

CZ-4C R/B - Pass Details

Date: 13 April 2024
Orbit: 530 x 1464 km, 63.4° (Epoch: 26 May)

Event Time Altitude Azimuth Distance (km) Brightness Sun altitude
Rises 14:31:08 0° 326° (NNW) 3,969 6.3 -45.1°
Reaches altitude 10° 14:33:39 10° 325° (NW) 3,123 5.6 -45.2°
Enters shadow 14:36:49 29° 322° (NW) 2,142 4.5 -45.2°
